Theta_e
294 293 295 302 306 307 306 305 306 305 305 307 307 308 308 306 307 308 309 308 308 308 311 312 312 312 311 311 313 314 314 317 320 320 319 317 315 314 313 311 309 307 306 306
294 294 293 295 300 306 307 308 306 304 305 305 306 307 306 305 306 307 307 307 308 308 310 311 311 311 310 310 310 312 313 315 317 319 318 317 314 314 313 311 310 308 306 305
295 294 295 295 296 298 306 308 306 307 305 305 305 306 306 304 304 307 308 309 309 309 310 311 311 311 311 310 310 309 310 312 314 318 319 317 316 314 313 311 309 307 306 306
295 295 296 295 296 298 303 306 306 307 307 308 305 307 305 306 306 305 306 307 308 308 310 310 311 310 311 311 309 309 309 311 314 317 318 317 315 315 314 313 310 308 307 305
294 296 297 296 296 296 298 298 303 307 307 307 307 307 305 304 305 305 306 307 307 308 309 310 311 311 311 310 310 309 309 309 312 314 316 315 316 315 314 313 310 308 306 305
296 296 297 296 296 296 297 299 302 304 305 306 304 305 304 303 305 305 304 306 307 309 309 310 310 311 311 311 310 309 309 308 310 313 314 314 315 315 315 313 310 307 305 304
296 297 298 298 299 297 302 302 304 307 307 305 304 305 305 303 304 304 305 305 306 308 309 309 309 308 309 310 311 310 309 308 309 311 312 313 314 314 314 313 311 308 305 304
296 293 299 298 299 298 295 301 306 308 308 307 303 307 305 304 303 301 304 305 305 305 306 307 307 308 309 309 310 310 309 308 308 309 310 311 313 314 314 313 311 309 306 305
292 295 298 298 298 299 297 300 298 303 291 303 298 301 301 301 301 303 303 303 304 303 304 305 306 307 308 308 309 309 309 308 308 308 309 310 312 313 313 312 310 307 306 304
294 297 299 301 300 299 299 299 301 302 301 305 296 298 301 297 300 302 298 300 301 302 302 303 304 305 306 307 307 307 308 307 308 307 308 310 312 312 312 310 308 306 304 303
294 296 296 299 302 299 300 303 302 304 305 304 304 302 291 293 291 293 292 295 296 298 299 300 300 301 303 304 304 305 305 305 304 305 307 309 311 311 309 307 306 304 303 301
293 298 296 298 296 299 301 301 303 302 301 298 297 299 285 284 283 286 291 294 295 296 296 297 298 299 299 300 301 302 302 302 302 303 304 307 308 308 306 304 303 302 301 299
296 297 296 296 300 301 302 298 299 300 299 300 303 297 285 292 291 290 288 292 294 295 296 296 297 297 298 298 299 299 300 300 300 300 302 305 304 304 303 302 301 300 299 298
294 293 295 297 298 298 300 297 301 303 300 292 296 290 292 291 290 292 295 291 291 293 294 295 295 296 297 297 297 298 298 298 298 299 300 301 302 302 301 300 299 298 297 296
290 295 292 296 296 296 294 292 294 294 295 299 294 298 290 290 288 292 290 293 292 293 293 294 294 295 295 297 296 297 298 298 299 299 300 300 300 299 298 297 297 296 296 295
289 292 292 296 296 295 295 293 293 292 292 294 290 294 291 288 288 286 285 287 289 291 292 292 293 293 295 296 297 297 297 296 297 297 297 297 297 296 296 295 295 294 294 293
293 291 293 294 292 296 294 292 292 292 291 291 292 292 289 289 287 285 285 285 285 287 289 292 293 293 293 294 295 295 295 295 295 295 295 294 294 294 294 293 293 293 293 293
293 291 291 294 296 296 294 291 290 291 290 290 290 289 288 288 287 286 285 284 285 286 290 291 292 292 292 293 293 293 294 294 293 293 293 292 292 292 292 292 292 293 294 294
293 293 289 292 294 294 293 292 292 292 290 288 287 287 287 288 289 288 286 285 284 286 288 291 291 291 292 293 293 292 292 291 291 291 292 292 291 292 293 293 293 292 292 292
294 293 293 291 294 292 292 291 291 289 290 286 286 286 286 288 290 289 286 285 286 286 288 289 290 290 290 290 290 290 290 289 289 289 290 290 290 290 289 289 290 290 290 290
293 292 292 291 292 288 290 288 290 287 287 287 286 285 285 286 286 286 285 285 285 285 286 287 288 289 289 289 288 289 289 290 290 289 289 289 288 289 288 288 287 287 287 287
293 292 293 292 289 288 288 288 288 286 286 285 284 284 284 285 286 286 285 285 285 285 285 286 287 287 287 288 288 288 288 288 288 287 287 287 287 288 288 288 288 287 286 286
292 290 292 292 291 289 286 285 285 284 284 284 283 284 283 284 284 285 285 285 285 285 284 285 285 286 286 286 286 286 286 286 287 287 287 287 287 286 285 285 285 284 285 285
290 289 292 292 289 287 286 285 284 283 283 283 284 283 283 283 283 284 284 284 284 284 284 284 284 284 284 285 285 285 285 285 285 286 285 284 284 284 284 284 284 284 284 283
287 287 287 290 287 286 285 283 282 283 283 284 284 283 283 283 283 283 283 283 283 283 283 283 283 283 283 284 284 284 284 284 283 283 283 283 283 283 283 283 283 283 282 282
285 285 286 287 284 284 285 283 283 282 282 282 283 283 282 283 282 283 283 283 283 282 282 282 282 282 283 282 282 282 283 283 283 283 283 283 283 282 282 282 282 282 282 282
Wind_Speed
6 7 18 28 27 26 20 21 19 13 9 14 20 28 17 13 16 18 24 24 34 38 35 38 44 46 45 44 45 44 43 44 46 45 42 40 40 39 37 35 33 32 31 29
3 15 24 19 21 23 26 26 24 18 9 11 12 20 8 9 10 18 22 25 32 33 33 34 34 35 42 47 50 49 47 48 48 48 45 45 43 42 38 35 35 35 33 29
14 13 11 20 23 25 22 25 27 16 6 17 7 23 15 7 7 19 24 30 29 35 38 40 38 36 34 41 47 50 52 51 50 49 49 46 43 41 40 40 39 38 34 32
9 22 19 19 21 17 25 20 24 23 15 18 10 17 12 18 21 13 24 29 33 36 37 38 38 39 35 32 40 41 49 52 51 51 51 51 50 48 45 43 41 39 36 35
11 9 11 13 26 25 16 9 16 16 13 12 10 8 12 14 14 16 19 29 31 38 40 40 38 36 40 36 31 35 45 50 51 54 53 51 51 49 46 44 42 39 38 36
21 24 13 23 23 18 20 12 20 19 14 19 20 16 21 8 17 14 14 28 35 38 39 39 38 39 39 39 38 42 45 49 52 54 52 53 52 52 48 45 42 42 39 37
7 15 10 14 8 5 7 15 10 15 15 19 20 16 21 7 18 21 21 24 33 33 33 34 35 38 37 38 38 36 39 46 52 53 52 53 53 51 49 44 42 41 41 39
4 8 3 6 14 4 7 5 3 7 5 12 5 10 10 25 20 15 27 34 33 36 38 37 36 34 33 32 35 36 38 42 49 52 53 53 52 51 49 44 40 39 39 36
3 5 5 7 8 19 6 7 3 6 3 2 3 4 7 6 14 22 21 26 28 16 18 22 25 27 25 27 29 31 36 40 45 49 52 52 52 51 49 44 39 36 33 32
4 12 5 5 6 12 10 7 2 4 2 4 3 2 5 3 10 13 10 4 9 11 14 19 24 28 30 31 31 31 33 38 42 47 49 51 52 50 46 41 38 35 31 30
7 5 8 4 2 3 6 6 6 5 4 3 2 4 3 5 4 6 7 9 12 17 15 14 15 16 18 19 24 28 32 36 40 43 48 50 49 45 41 39 36 33 30 30
4 4 5 18 4 5 3 4 4 4 3 2 3 5 4 5 6 4 6 13 12 10 11 10 9 9 9 11 15 20 25 30 33 36 42 44 43 41 39 36 33 30 29 28
5 4 8 10 2 4 3 3 3 4 3 5 5 4 6 10 9 8 7 19 17 13 12 10 7 6 6 7 10 13 18 23 26 30 34 36 35 35 33 31 29 28 28 27
5 3 5 6 13 11 7 8 3 4 3 3 5 1 14 16 13 13 17 20 15 13 13 10 7 4 4 4 6 9 12 15 19 25 30 32 32 31 30 29 28 27 27 26
3 5 2 10 12 2 5 5 8 6 3 2 2 5 6 10 11 12 17 19 19 17 14 11 6 2 3 5 7 11 13 16 19 23 25 27 28 27 27 27 26 27 26 25
2 4 4 6 3 11 12 15 12 8 8 4 4 4 9 8 11 12 17 20 18 18 16 11 5 4 7 9 11 12 15 18 20 21 22 23 23 23 24 23 24 25 24 23
3 2 5 5 1 3 5 7 8 6 9 2 9 5 9 8 7 8 17 21 22 21 16 12 8 6 8 10 10 12 13 15 16 17 18 19 21 21 21 21 22 22 21 20
2 2 2 4 6 5 1 2 1 8 8 7 3 9 10 9 11 3 24 21 24 22 18 10 5 7 8 8 10 11 11 13 14 15 15 15 16 17 18 18 17 16 18 20
9 3 3 2 2 0 2 5 4 3 3 10 7 12 11 23 5 6 30 24 21 20 15 9 3 7 8 10 12 12 13 14 14 14 14 15 16 16 17 17 16 16 17 17
5 4 2 3 3 1 2 7 10 0 3 6 9 10 10 15 6 4 31 24 22 19 13 7 2 4 6 9 10 10 11 12 12 13 14 15 14 13 11 12 14 15 16 16
2 2 2 3 3 4 6 12 7 5 5 11 13 12 12 5 6 19 19 18 18 17 14 7 1 3 5 7 9 10 9 9 9 9 10 10 10 11 12 11 11 11 12 12
3 4 3 2 3 3 17 3 5 3 10 14 13 14 16 16 16 16 15 16 16 16 12 7 2 4 5 6 6 5 6 7 7 8 8 9 8 8 8 9 8 9 9 10
3 3 3 3 2 3 7 7 6 11 10 11 14 17 16 16 16 14 15 14 14 13 11 7 3 1 2 3 4 5 6 7 7 7 6 5 5 6 8 8 8 8 7 7
4 5 1 3 2 2 6 4 13 14 13 14 14 15 16 17 16 15 14 14 13 11 9 7 4 2 1 2 3 4 4 4 4 5 5 5 6 6 6 6 5 5 5 5
1 5 4 2 2 2 1 12 15 14 11 12 12 13 15 16 16 15 14 11 11 10 9 8 6 5 3 1 1 2 2 3 4 4 4 4 4 4 5 6 6 7 6 6
1 1 0 1 1 2 3 13 15 11 12 12 13 13 13 14 15 14 13 12 10 9 8 7 5 3 3 3 2 3 4 5 5 4 4 4 5 5 6 7 6 7 7 6
Wind_Direction
278 226 233 236 226 238 249 240 248 236 215 210 226 248 235 228 230 233 237 237 242 241 244 241 242 244 247 244 242 239 237 233 226 224 220 222 225 225 225 226 228 230 229 228
256 238 244 260 276 254 236 244 242 252 210 229 245 259 222 224 239 230 234 242 241 248 246 245 248 244 243 246 244 241 238 234 231 228 226 225 226 226 228 228 229 228 228 229
232 251 262 242 255 261 258 228 234 237 209 235 243 261 252 248 254 257 249 251 252 253 257 259 253 249 248 242 241 242 240 236 231 228 226 226 228 228 226 226 227 226 226 229
234 248 244 239 235 235 257 242 236 238 237 239 174 260 236 235 240 236 249 249 254 253 255 259 257 254 253 247 239 241 240 237 234 228 226 227 229 227 229 230 229 227 228 229
239 234 223 229 234 229 246 268 276 235 233 246 215 257 254 235 237 234 239 246 246 251 254 253 256 259 255 251 243 246 243 238 233 231 228 228 229 232 235 233 230 228 228 229
248 255 251 240 252 239 227 239 261 250 243 247 235 226 258 211 225 236 233 238 239 242 250 255 257 260 263 260 251 248 243 239 233 231 229 230 229 231 230 230 229 227 227 229
256 253 253 217 227 162 190 208 230 216 217 237 223 216 231 213 215 225 232 233 241 240 244 250 258 260 256 253 254 244 240 237 233 231 230 231 231 232 233 231 230 226 226 226
293 323 153 189 226 161 181 201 209 232 213 219 163 212 226 224 236 244 235 243 256 251 250 254 259 262 260 255 252 248 241 238 234 233 232 231 232 231 231 231 232 231 230 232
299 267 272 251 204 199 197 228 140 346 339 99 192 278 304 191 223 233 239 246 254 273 268 264 264 261 259 256 253 254 246 238 238 234 231 229 229 228 228 228 230 231 232 231
285 295 244 301 176 191 185 152 160 186 273 221 242 267 225 251 217 232 244 267 294 295 286 277 269 261 255 254 256 253 249 244 240 234 231 229 227 226 226 225 227 227 227 227
279 227 288 330 300 192 166 178 182 187 202 97 348 275 269 241 259 279 338 339 331 319 319 306 293 281 269 254 247 242 238 237 234 231 228 226 223 222 221 221 222 224 226 224
264 288 288 289 267 201 249 155 143 152 175 120 132 273 331 328 326 305 338 338 334 330 334 332 320 311 293 264 244 235 233 234 233 231 228 222 216 214 213 214 217 221 221 219
310 320 319 332 4 106 322 199 165 110 87 192 143 259 359 6 15 357 330 353 347 347 347 345 333 320 292 265 247 234 228 229 229 225 217 211 207 205 205 209 212 213 212 214
336 287 211 279 291 305 303 7 7 152 147 180 232 347 352 355 351 345 349 350 350 344 347 336 331 311 277 243 230 224 215 214 212 204 199 196 196 197 201 205 206 209 212 217
70 279 260 288 298 294 24 19 30 67 18 167 291 91 358 345 325 346 343 349 355 348 338 339 323 288 193 165 166 168 173 173 177 179 182 184 188 192 197 201 205 209 214 219
354 292 315 294 49 72 54 31 46 48 19 38 29 74 9 324 328 353 356 356 356 351 343 317 292 190 173 161 155 163 165 166 172 178 183 187 191 195 197 202 208 213 217 221
264 286 345 274 64 253 32 13 20 80 39 343 36 322 321 331 353 359 357 356 348 344 341 317 264 219 197 175 169 180 177 182 182 185 188 190 192 196 203 209 214 216 219 224
228 73 249 282 339 47 177 329 286 91 52 29 1 341 333 317 285 39 14 357 350 344 343 326 276 230 215 190 189 190 190 190 193 192 193 199 204 203 203 205 210 219 227 230
204 170 287 350 31 195 7 11 352 2 26 21 1 350 347 346 121 209 358 359 354 349 344 334 281 234 223 216 215 217 198 188 186 192 195 197 198 198 203 209 214 221 227 231
167 208 351 338 70 32 305 326 321 349 4 11 13 353 347 341 22 328 343 357 1 2 358 352 331 234 219 208 205 202 197 192 188 186 191 200 204 203 205 215 219 225 228 230
7 12 202 288 94 323 343 318 328 62 274 351 357 340 345 355 322 319 344 2 8 5 10 17 61 168 185 191 189 196 197 195 200 201 202 205 207 204 208 211 217 229 232 233
8 325 13 5 59 317 342 10 64 285 320 338 348 351 344 349 350 353 359 6 11 18 24 33 74 144 161 182 201 216 212 205 210 213 206 203 202 203 209 216 216 224 232 232
26 1 348 9 81 95 58 77 358 357 326 341 345 352 355 0 1 359 1 6 12 18 20 31 39 139 188 201 206 220 219 211 206 204 204 208 220 225 220 216 212 213 217 218
355 10 35 207 75 140 71 3 3 357 347 349 1 357 360 2 8 10 8 6 10 13 14 18 20 2 299 222 217 219 216 210 212 215 218 224 214 214 212 212 207 204 205 203
253 335 324 45 56 100 106 11 355 356 359 6 15 9 7 8 13 13 13 14 10 10 14 17 24 21 13 360 213 196 191 237 232 227 224 220 219 218 209 202 196 191 185 182
298 219 7 278 133 300 314 339 352 4 8 13 13 22 23 20 19 15 10 11 11 10 6 7 4 352 3 331 285 245 225 221 229 231 226 212 199 204 201 194 186 183 181 176